Home   Weather   Lille   Past weeks

Flag for France Past Weather in Lille, Nord-Pas-de-Calais, France — Yesterday and Last 2 Weeks

Now
45 °F

Mostly cloudy.


Feels Like: 39 °F
Forecast: 36 / 48 °F
Wind: 12 mph from Northwest

Location: Lille Airport

Current Time: Feb 24, 2017 at 4:07:41 pm

Latest Report: Feb 24, 2017 at 3:30 pm


Visibility: N/A

Pressure: 30.04 "Hg

Humidity: 76%

Dew Point: 37 °F

Location of LilleLocation

Past Weather in Lille — Graph

°F

Lille Temperature Yesterday

Maximum temperature yesterday: 54 °F (at 2:00 pm)
Minimum temperature yesterday: 45 °F (at 11:30 pm)
Average temperature yesterday: 49 °F

High & Low Weather Summary for the Past Weeks

 TemperatureHumidityPressure
High59 °F (Feb 15, 2:30 pm)100% (Feb 9, 5:00 pm)30.48 "Hg (Feb 9, 5:00 pm)
Low28 °F (Feb 10, 6:00 am)55% (Feb 14, 1:30 pm)29.39 "Hg (Feb 23, 2:00 pm)
Average43 °F87%30.14 "Hg
* Reported Feb 9 2:00 pm — Feb 24 2:30 pm, Lille, Weather by CustomWeather, © 2017

Note: Actual official high and low records may vary slightly from our data, if they occured in-between our weather recording intervals... More about our weather records

Advertising

Lille Weather History for the Previous 24 Hours

Scroll right to see more
 ConditionsComfort  
Time TempWeatherWind HumidityBarometerVisibility
2:30 pm
Fri, Feb 24
45 °FPartly sunny.10 mph81%30.01 "HgN/A
2:00 pm43 °FLight rain. Mostly cloudy.9 mph87%30.01 "HgN/A
1:30 pm43 °FBroken clouds.6 mph93%30.01 "HgN/A
1:00 pm41 °FLight rain. Cloudy.7 mph93%30.01 "Hg6 mi
12:30 pm39 °FLight rain. Partly sunny.9 mph93%30.01 "HgN/A
12:00 pm43 °FDrizzle. Mostly cloudy.9 mph87%29.98 "HgN/A
11:30 am41 °FMostly cloudy.9 mph87%29.98 "HgN/A
11:00 am43 °FMostly cloudy.8 mph87%29.98 "HgN/A
10:30 am41 °FPartly sunny.9 mph87%29.95 "HgN/A
10:00 am43 °FLight rain. Broken clouds.10 mph81%29.95 "HgN/A
9:30 am41 °FBroken clouds.9 mph87%29.95 "HgN/A
9:00 am41 °FPartly sunny.7 mph87%29.92 "HgN/A
8:30 am41 °FMostly cloudy.7 mph81%29.92 "HgN/A
8:00 am39 °FBroken clouds.7 mph87%29.89 "HgN/A
7:30 am39 °FPassing clouds.8 mph87%29.89 "HgN/A
7:00 am41 °FMostly cloudy.9 mph81%29.89 "HgN/A
6:30 am41 °FPassing clouds.10 mph81%29.86 "HgN/A
6:00 am41 °FDrizzle. Mostly cloudy.14 mph81%29.86 "HgN/A
5:30 am41 °FPartly cloudy.12 mph81%29.83 "HgN/A
5:00 am41 °FOvercast.12 mph81%29.83 "HgN/A
4:30 am41 °FMostly cloudy.12 mph81%29.83 "HgN/A
4:00 am43 °FPassing clouds.14 mph76%29.80 "HgN/A
3:30 am43 °FMostly cloudy.14 mph71%29.80 "HgN/A
3:00 am43 °FOvercast.14 mph76%29.77 "HgN/A
2:30 am43 °FOvercast.13 mph71%29.77 "HgN/A
2:00 am45 °FOvercast.14 mph66%29.74 "HgN/A
1:30 am43 °FPassing clouds.15 mph76%29.74 "HgN/A
1:00 am45 °FPassing clouds.15 mph71%29.71 "HgN/A
12:30 am45 °FPartly cloudy.18 mph66%29.68 "HgN/A
12:00 am45 °FOvercast.20 mph71%29.68 "HgN/A
11:30 pm
Thu, Feb 23
45 °FLight rain. Mostly cloudy.20 mph71%29.65 "HgN/A
11:00 pm46 °FOvercast.23 mph62%29.62 "HgN/A
10:30 pm46 °FMostly cloudy.22 mph66%29.59 "HgN/A
10:00 pm46 °FMostly cloudy.23 mph62%29.59 "HgN/A
9:30 pm46 °FMostly cloudy.24 mph66%29.56 "HgN/A
9:00 pm46 °FPartly cloudy.29 mph66%29.53 "HgN/A
8:30 pm46 °FClear.31 mph66%29.50 "Hg10 mi
8:00 pm46 °FClear.30 mph66%29.50 "Hg10 mi
7:30 pm46 °FPassing clouds.30 mph66%29.47 "HgN/A
7:00 pm48 °FPassing clouds.30 mph62%29.47 "HgN/A
6:30 pm48 °FPassing clouds.33 mph62%29.45 "HgN/A
6:00 pm48 °FPartly sunny.31 mph62%29.45 "HgN/A
5:30 pm50 °FOvercast.35 mph58%29.45 "HgN/A
5:00 pm50 °FPartly sunny.36 mph62%29.42 "HgN/A
4:30 pm50 °FOvercast.36 mph62%29.42 "HgN/A
4:00 pm50 °FOvercast.35 mph62%29.39 "HgN/A
Weather by CustomWeather, © 2017

See weather overviewHow to use our weather pages